EHI
0 0 0 0 0 0 0 0 0 1 2 5 10 14 15 16 19 23 25 24 23 24 24 20 18 17 14 13 13 15 15 13 13 13 14 14 14 14 13 10 9 11 12 12
0 0 0 0 0 0 0 0 0 1 4 8 13 17 19 20 22 25 24 22 23 25 23 19 17 16 15 14 14 15 14 13 12 12 12 12 12 12 11 10 9 9 10 11
0 0 0 0 1 1 0 0 0 1 5 11 17 21 25 26 26 26 25 23 23 25 24 20 18 17 17 17 17 16 14 13 13 12 12 11 11 11 11 11 10 9 8 8
0 0 0 0 1 1 1 0 1 3 6 12 19 24 27 27 27 27 25 23 23 25 24 23 20 18 18 19 18 17 16 15 15 14 13 13 13 13 14 14 12 9 6 5
0 0 0 0 1 1 1 1 3 6 9 12 16 20 22 23 24 25 24 20 20 22 24 23 21 20 19 18 17 17 17 16 15 13 13 14 15 17 17 15 11 8 5 4
0 0 1 1 0 1 1 2 5 8 9 10 13 17 19 19 18 18 18 16 15 20 23 23 21 20 18 16 15 15 15 15 14 14 14 14 16 17 16 13 10 7 5 5
0 0 1 1 1 1 2 5 9 10 10 12 16 19 20 18 14 12 13 13 14 17 20 20 19 17 15 14 13 14 14 14 14 16 15 14 14 15 14 12 10 7 5 4
0 0 1 2 3 3 5 10 14 15 15 19 21 20 18 14 11 9 9 10 12 14 14 14 15 15 13 13 14 15 15 12 11 13 14 13 12 12 12 11 9 5 3 3
0 0 0 2 5 7 9 12 14 16 17 18 18 15 12 9 8 7 6 8 10 12 11 10 11 13 13 13 14 14 13 9 7 8 9 9 9 8 8 8 7 4 3 3
0 0 1 2 6 9 11 10 10 10 11 11 11 10 8 6 5 4 3 4 8 11 10 8 8 9 10 11 10 9 8 5 4 4 5 5 4 4 4 4 3 3 3 3
0 0 2 4 7 10 11 9 5 4 5 6 6 6 4 2 2 1 1 2 5 9 8 6 5 6 7 7 6 5 3 2 2 3 3 2 1 1 1 1 1 2 2 1
1 1 3 6 9 9 8 6 3 1 2 3 2 2 1 0 0 0 0 1 3 5 5 4 3 4 4 4 3 2 1 0 1 2 1 1 0 0 0 0 0 1 1 0
2 3 3 5 7 6 4 2 1 0 0 0 0 0 0 0 0 0 0 1 2 3 2 1 1 2 2 1 1 1 0 0 0 0 0 0 0 0 0 0 0 0 0 0
1 2 3 3 4 4 3 1 0 0 0 0 0 0 0 0 0 0 0 1 2 2 1 0 0 0 0 0 0 0 0 0 0 0 0 0 0 0 0 0 0 0 0 0
0 1 1 2 3 3 3 1 0 0 0 0 0 0 0 0 0 0 0 1 1 1 0 0 0 0 0 0 0 0 0 0 0 0 0 0 0 0 0 0 0 0 0 0
0 0 0 1 2 2 1 1 0 0 0 0 0 0 0 0 0 0 0 0 0 0 0 0 0 0 0 0 0 0 0 0 0 0 0 0 0 0 0 0 0 0 0 0
0 0 0 0 1 1 0 0 0 0 0 0 0 0 0 0 0 0 0 0 0 0 0 0 0 0 0 0 0 0 0 0 0 0 0 0 0 0 0 0 0 0 0 0
0 0 0 0 0 0 0 0 0 0 0 0 0 0 0 0 0 0 0 0 0 0 0 0 0 0 0 0 0 0 0 0 0 0 0 0 0 0 0 0 0 0 0 0
0 0 0 0 0 0 0 0 0 0 0 0 0 0 0 0 0 0 0 0 0 0 0 0 0 0 0 0 0 0 0 0 0 0 0 0 0 0 0 0 0 0 0 0
0 0 0 0 0 0 0 0 0 0 0 0 0 0 0 0 0 0 0 0 0 0 0 0 0 0 0 0 0 0 0 0 0 0 0 0 0 0 0 0 0 0 0 0
0 0 0 0 0 0 0 0 0 0 0 0 0 0 0 0 0 0 0 0 0 0 0 0 0 0 0 0 0 0 0 0 0 0 0 0 0 0 0 0 0 0 0 0
0 0 0 0 0 0 0 0 0 0 0 0 0 0 0 0 0 0 0 0 0 0 0 0 0 0 0 0 0 0 0 0 0 0 0 0 0 0 0 0 0 0 0 0
0 0 0 0 0 0 0 0 0 0 0 0 0 0 0 0 0 0 0 0 0 0 0 0 0 0 0 0 0 0 0 0 0 0 0 0 0 0 0 0 0 0 0 0
0 0 0 0 0 0 0 0 0 0 0 0 0 0 0 0 0 0 0 0 0 0 0 0 0 0 0 0 0 0 0 0 0 0 0 0 0 0 0 0 0 0 0 0
0 0 0 0 0 0 0 0 0 0 0 0 0 0 0 0 0 0 0 0 0 0 0 0 0 0 0 0 0 0 0 0 0 0 0 0 0 0 0 0 0 0 0 0
0 0 0 0 0 0 0 0 0 0 0 0 0 0 0 0 0 0 0 0 0 0 0 0 0 0 0 0 0 0 0 0 0 0 0 0 0 0 0 0 0 0 0 0
0 0 0 0 0 0 0 0 0 0 0 0 0 0 0 0 0 0 0 0 0 0 0 0 0 0 0 0 0 0 0 0 0 0 0 0 0 0 0 0 0 0 0 0
Wind_Speed
7 5 10 12 13 14 13 11 9 6 5 4 4 4 4 4 5 5 5 4 3 3 4 4 4 4 5 5 5 4 5 5 5 4 4 4 4 5 5 5 6 6 6 6
9 8 9 10 11 12 12 11 10 7 4 4 5 5 5 4 4 4 4 3 3 3 2 3 4 4 4 4 5 5 4 4 4 4 4 4 4 4 5 5 4 5 5 5
10 10 11 12 10 10 9 8 8 7 4 7 7 6 5 4 4 4 3 3 3 3 2 2 3 4 5 5 5 5 5 5 5 4 4 3 4 4 4 4 5 4 4 4
8 10 13 4 3 5 6 4 3 2 6 7 7 7 5 5 5 4 3 3 2 2 2 2 2 4 5 5 5 5 5 5 5 5 5 4 5 5 5 5 5 4 4 4
8 12 9 6 5 6 7 5 3 5 7 8 10 9 7 6 5 5 4 3 2 2 2 2 2 3 4 5 6 6 5 4 5 5 6 5 5 5 5 5 5 5 4 4
9 11 10 6 6 3 5 6 4 6 7 8 8 6 6 5 5 5 5 4 3 3 4 4 3 3 4 5 5 6 5 5 5 5 5 6 6 6 5 5 5 5 6 5
10 9 4 6 4 6 8 4 5 5 6 6 3 5 7 6 5 5 5 5 4 4 4 4 3 3 5 5 5 5 6 6 6 6 6 6 6 6 6 6 6 6 6 5
8 10 5 5 4 2 5 6 4 5 6 7 9 9 8 7 6 6 6 6 5 5 5 5 4 4 6 5 5 6 7 7 7 6 6 7 7 6 6 6 7 6 6 5
1 2 7 4 5 5 3 5 5 6 7 9 10 9 8 7 7 7 7 6 5 6 7 6 6 6 7 6 6 7 8 8 8 8 8 7 7 7 6 5 5 5 5 5
2 5 5 5 5 4 5 5 6 7 9 9 10 9 8 7 7 7 7 6 6 6 7 7 7 7 7 6 7 9 10 9 9 9 10 9 7 6 5 5 5 5 6 6
3 5 5 5 5 5 7 7 8 9 9 9 10 10 9 7 7 7 7 6 6 7 8 8 7 8 7 7 8 10 10 10 9 10 10 11 11 11 10 10 8 6 6 6
2 4 3 5 5 6 7 8 9 10 10 10 10 10 9 8 8 7 7 7 8 9 9 9 9 9 8 7 8 9 9 8 8 8 8 9 11 12 19 16 18 18 14 10
3 3 6 7 6 6 7 8 9 9 10 10 10 9 9 9 8 8 8 9 9 9 9 9 10 10 8 8 9 9 9 8 8 8 8 8 8 9 10 12 17 18 16 15
5 6 7 7 7 7 9 10 10 10 10 10 10 10 10 10 10 9 9 9 9 9 10 10 10 10 8 8 9 10 10 9 8 7 7 7 7 7 7 8 9 9 11 12
4 4 6 8 8 9 9 10 11 10 11 11 10 10 11 11 10 10 9 9 10 11 11 11 11 9 7 8 9 9 8 7 7 7 7 7 7 7 7 8 8 7 7 8
5 7 9 9 9 10 10 11 11 11 11 11 10 10 11 11 11 10 9 9 10 11 10 10 10 9 8 8 9 8 9 10 7 6 7 6 6 6 7 7 7 6 6 6
8 8 9 10 10 10 10 10 10 11 12 12 12 12 11 12 12 11 10 10 11 11 10 9 9 8 8 8 7 7 8 8 7 6 7 6 6 6 6 6 6 6 7 8
6 7 8 10 11 11 11 11 11 12 12 13 13 12 11 11 11 11 10 10 11 12 10 9 8 8 8 8 6 6 6 6 6 7 7 7 6 6 6 6 6 6 6 6
8 9 10 11 12 12 12 12 12 12 12 12 12 12 11 11 11 11 10 10 10 10 9 8 7 8 9 8 5 5 6 7 7 7 7 6 5 6 6 6 6 5 5 5
10 11 12 12 12 12 13 13 13 12 11 12 12 12 12 10 10 10 10 10 8 7 7 7 7 8 7 6 3 5 6 7 7 7 6 6 6 6 6 6 6 6 5 5
12 13 13 13 13 13 13 13 13 13 12 12 12 12 11 10 8 8 9 9 8 7 7 6 6 6 6 4 3 6 6 6 6 6 6 6 6 6 6 6 6 5 5 5
12 13 14 14 14 13 12 12 13 14 13 12 12 12 11 10 10 9 9 7 7 3 4 7 7 8 6 2 5 6 6 6 6 6 6 6 6 6 6 5 5 5 5 5
10 12 13 14 15 14 14 13 13 12 12 12 11 11 10 8 7 7 8 6 6 5 6 9 8 6 5 3 6 6 6 6 6 6 6 6 5 5 5 5 5 4 4 4
11 12 13 14 14 14 14 13 12 11 12 11 10 10 9 8 7 8 8 8 7 6 8 8 6 5 3 5 6 6 6 6 5 5 5 5 5 5 5 4 4 4 4 4
12 12 13 14 13 11 12 13 12 12 11 9 10 9 7 7 7 7 8 9 8 6 8 8 4 3 3 6 6 6 6 6 5 5 5 4 4 5 4 4 4 3 3 3
10 9 9 9 9 9 9 9 9 8 8 8 8 7 8 8 9 8 7 9 9 7 6 6 5 3 5 6 6 6 5 5 4 4 5 4 4 4 4 4 4 3 3 3
11 9 8 8 8 8 8 8 8 8 8 8 8 7 7 7 8 8 8 7 6 6 6 5 5 5 5 5 5 5 4 4 4 4 3 3 3 3 3 3 2 2 2 2
Wind_Direction
235 198 190 196 201 207 223 236 243 226 213 166 146 138 130 129 131 125 119 120 133 147 150 166 173 174 171 169 164 164 164 165 167 169 168 170 173 177 175 176 175 174 178 183
211 204 203 205 206 208 216 229 237 234 190 112 121 128 129 121 123 115 108 108 110 114 132 166 177 178 172 167 159 159 159 155 154 153 155 157 159 161 156 155 156 159 167 169
203 193 204 209 207 207 208 219 235 232 169 141 142 136 129 124 114 100 99 101 108 116 125 146 180 175 170 165 156 154 156 148 142 143 140 138 133 130 134 138 138 138 141 141
204 193 217 173 169 212 205 200 218 178 139 146 134 122 111 106 102 86 73 80 78 88 104 125 149 157 158 156 151 149 148 144 140 135 132 127 121 120 121 121 122 124 126 127
210 210 204 155 172 196 201 184 186 165 143 131 128 131 112 91 82 74 62 64 62 48 76 102 122 139 150 153 147 141 137 138 139 142 137 133 126 121 120 118 115 113 108 103
217 224 216 158 141 183 222 190 149 157 151 148 168 182 117 94 81 73 62 60 64 69 76 78 85 124 136 136 133 131 131 132 133 135 134 130 124 121 118 117 112 104 93 86
218 223 196 92 139 192 217 132 118 147 153 161 148 66 102 102 84 73 67 65 66 69 69 68 75 108 118 118 118 122 124 120 119 122 122 120 118 117 116 111 105 97 91 83
218 224 175 89 176 188 68 82 112 128 130 117 103 104 107 98 85 74 65 68 73 75 69 64 72 100 102 99 100 108 111 109 107 110 114 112 110 108 110 113 111 105 97 86
296 58 73 71 70 67 87 102 101 112 115 121 120 114 104 92 80 72 66 68 76 82 80 71 68 79 86 83 96 103 102 99 96 89 85 93 103 109 109 108 108 106 103 93
135 110 102 95 90 88 93 101 107 115 120 123 118 111 101 92 84 77 70 69 73 80 80 74 69 74 82 91 95 99 97 94 92 88 82 72 66 65 70 75 90 93 89 87
154 127 126 111 98 98 99 106 110 111 114 116 114 107 104 98 89 81 73 69 72 75 79 78 75 75 79 90 98 98 97 94 92 88 85 76 65 49 52 46 41 66 74 75
125 132 138 117 114 118 114 111 113 113 109 106 107 107 103 96 90 86 83 79 79 79 79 78 77 75 74 81 92 99 99 98 96 96 95 97 95 80 56 59 56 56 56 66
74 98 99 117 122 121 117 112 113 112 111 108 104 106 104 99 95 91 86 81 79 80 79 77 75 72 72 77 84 90 95 96 97 98 101 102 104 105 100 78 67 61 60 63
111 118 125 133 127 121 117 113 110 108 109 109 109 108 106 101 95 88 84 85 86 85 83 80 76 70 70 80 88 92 94 93 96 98 99 99 100 102 104 107 103 91 75 69
132 132 131 128 126 124 123 122 117 114 113 111 110 110 106 102 96 90 87 90 90 84 80 79 77 72 71 83 87 86 86 88 89 93 95 96 100 103 101 98 98 100 104 99
126 126 134 136 136 137 134 130 126 124 120 115 111 107 104 101 96 89 84 83 85 81 77 77 77 78 82 88 92 90 85 80 88 100 101 102 101 99 98 100 98 91 84 77
149 147 144 140 138 136 132 131 131 128 125 120 116 114 111 106 98 89 85 81 81 79 78 77 75 78 82 85 89 95 99 100 103 99 93 92 91 91 91 90 87 84 74 50
149 143 141 138 136 129 127 128 127 125 121 120 119 115 111 106 101 97 94 92 86 76 66 67 70 75 75 75 76 85 94 95 91 88 90 87 89 93 93 92 92 91 96 98
133 134 133 131 130 130 130 126 121 117 118 118 115 110 106 102 100 98 94 89 85 79 69 68 65 77 79 74 76 96 94 96 95 94 96 103 100 90 88 87 85 81 78 75
131 132 129 127 129 128 124 121 119 117 117 117 114 109 103 99 99 98 93 82 70 72 77 70 77 76 79 66 37 91 95 98 101 102 100 95 90 89 85 81 78 76 74 72
131 131 130 127 125 124 123 123 122 119 117 117 115 111 107 105 104 103 100 92 80 74 86 86 78 75 73 64 65 84 88 92 94 95 94 92 90 86 82 81 79 76 73 70
130 131 130 129 126 122 121 122 121 119 118 117 115 114 113 111 105 94 83 85 90 60 85 84 75 59 34 15 84 83 86 87 87 89 89 89 90 90 88 86 82 76 70 65
126 127 127 126 123 121 120 120 120 119 120 119 118 116 111 105 105 105 98 89 91 71 72 71 61 36 349 65 79 82 83 85 87 89 90 90 89 88 87 83 77 71 68 66
122 120 119 120 120 120 118 117 116 116 116 113 111 111 112 109 97 89 94 91 77 81 83 76 55 26 357 81 82 84 86 90 90 88 88 91 90 85 84 83 82 79 73 66
119 120 122 124 122 119 119 120 118 119 117 115 115 114 108 101 101 100 102 104 108 105 101 94 68 7 73 80 83 81 74 64 62 72 85 84 89 90 84 78 73 70 68 65
116 116 116 117 119 124 130 131 128 127 124 120 115 109 105 105 109 111 111 110 106 103 103 108 106 103 84 85 84 85 91 101 98 84 77 80 82 80 74 66 66 63 65 62
117 119 120 118 118 123 125 126 125 125 123 120 116 113 114 115 114 111 112 113 113 106 101 100 98 91 88 88 87 84 83 82 79 79 81 75 75 78 81 77 66 65 62 69